Find Starlink 36563

NORAD ID: 67550 Int'l Des: 2026-014 Owner: SPXS Country: US Constellation: starlink operational
LEOCIRCULARRETROGRADE

Current View

Loading 3D Globe...

About Starlink 36563

Description loading...

Upcoming Passes

Passes for default location (London). Set your location on the main map for personalized predictions.

Altitude History

Loading altitude history...

Two-Line Element Set

1 67550U 26014U 26146.23967199 .00017752 00000-0 55096-3 0 9991
2 67550 97.2866 33.3548 0001562 88.2976 271.8446 15.33440522 20679
Epoch: May 26, 2026 • Age: 10 hours

Current Status

Altitude 471.3 km
Velocity 7.63 km/s
Sub-Earth Point -12.12°S, 88.22°E
Launch Date Jan 22, 2026
Age 0.3 years
Type internet

Technical Details

Classification Payload
Mass 575.00 kg
Dry Mass 530.00 kg
Total Mass 575.00 kg
Length 0.30 m
Diameter 4.10 m
Span 29.00 m
Shape Box + pan
Manufacturer SPXS
Bus Type Starlink V2MO
Phase Status In Orbit
Owner/State SPXS/US

Most Searched